Vertical_Velocity
-1 1 0 0 -0 -0 2 2 4 2 7 0 -0 -0 -0 1 0 -0 1 2 1 1 -0 0 0 0 -1 -0 -0 -1 1 0 -1 -3 1 3 -2 0 2 -1 2 -0 1
-0 -1 -1 -1 -2 -1 -2 0 1 -1 -1 1 2 1 2 2 1 1 1 1 -0 2 2 2 4 2 1 1 -0 -1 -2 -0 -2 -1 -2 -4 -2 -6 0 0 1 -0 13
-0 -1 -1 1 2 2 3 -1 -0 -2 -3 0 -0 -5 -2 -2 -3 0 3 -1 -1 -2 -1 -1 -0 3 1 0 -1 1 2 1 -1 -0 1 -3 -3 1 1 -1 -2 2 -7
-3 -0 0 -4 -2 -1 0 2 -2 1 2 1 5 6 1 -1 -1 -0 -0 1 -1 -0 -1 -1 0 1 2 3 3 0 -0 0 0 -3 -3 1 0 2 -5 -1 2 -1 1
1 -1 2 -1 7 -1 -5 -1 0 -4 0 -5 -1 -3 -4 1 4 3 1 -3 1 1 -2 1 1 -3 -1 -1 2 2 3 0 2 1 -2 -1 -0 -3 0 0 -2 -3 2
-1 0 -2 1 5 -3 5 -14 -7 17 114 -1 8 -3 -2 -2 5 2 -3 2 -1 -2 3 -0 0 -1 0 1 1 1 1 3 3 1 -0 -2 -0 -1 -0 -2 0 3 -8
4 -1 2 -1 -4 8 1 0 -0 10 19 -2 -10 2 -1 -3 8 4 -2 -4 2 -1 -1 -1 -1 -0 -2 -3 -2 2 1 -2 -1 -3 0 1 1 1 -1 -3 -3 -1 -4
2 3 3 3 5 6 -0 6 3 4 5 -1 -0 0 -6 5 0 7 0 -1 2 3 2 -0 -0 -1 4 -3 -0 -3 -1 -0 1 3 -2 -3 -0 -1 3 -1 -1 1 -1
2 3 2 4 2 1 -1 -1 -5 -3 -3 -1 1 1 2 -0 1 2 2 3 13 6 -1 -2 1 -4 -3 -0 1 -0 -1 -2 -1 -1 3 -0 1 -0 1 1 3 -0 -1
-1 -2 -2 -2 -2 -2 -1 -1 -2 -2 1 -1 3 4 3 2 5 2 1 0 -1 -3 0 2 -1 9 2 1 -1 2 1 -0 2 1 -2 1 -0 -1 0 0 -1 -1 -0
-2 -3 -3 -3 -2 -0 1 -2 -4 -3 -2 -5 -1 2 1 -0 1 1 2 2 -2 -3 15 1 5 -4 6 2 0 2 2 1 2 1 2 1 -1 2 2 2 1 -0 -1
-3 -3 -3 -2 -4 -3 -1 -0 -1 -2 -1 0 1 -1 -2 4 76 49 -1 -3 -8 2 1 1 3 4 17 27 -1 5 2 1 1 5 4 2 3 0 -1 2 -1 2 2
-2 -3 -2 -0 -1 -0 -1 -3 -2 1 -3 -3 -3 -3 2 -3 6 4 5 15 26 25 10 6 5 6 8 5 14 2 1 5 -0 1 6 2 -1 -0 0 -0 -1 -1 2
-1 1 1 -1 -3 -1 -1 1 -1 -2 2 1 -0 1 -0 -0 -6 5 -5 -1 3 0 8 11 8 -2 2 6 17 8 3 2 -4 3 2 -1 1 -0 1 1 1 3 3
0 -1 -2 -2 -4 -3 -2 -2 1 1 -3 -5 -4 -5 -4 -7 -8 -8 -5 -2 0 1 1 -5 -2 4 4 6 6 6 10 7 -1 7 6 4 1 -3 -4 -5 -3 -1 -1
-2 -3 -3 -3 -0 -0 -1 -1 -1 -1 0 -0 0 1 1 -2 -1 -1 0 -1 -0 -3 -4 0 4 3 0 0 0 4 -1 -1 -3 -2 -0 0 1 1 2 -1 2 3 -0
-2 -3 -4 -3 -3 -3 -3 2 -4 -2 -1 -2 -2 -4 0 -0 1 -1 0 2 1 0 2 -0 3 12 1 1 1 -1 1 0 2 3 4 2 1 3 -0 3 0 -1 1
-1 -3 -4 -2 -3 -1 2 -0 -4 -4 -1 -3 -1 -1 -2 -2 -2 -0 1 0 -0 -2 -1 2 -1 -1 -1 -1 -1 -1 -1 -1 -0 -1 -1 -1 1 -2 -3 0 -1 0 2
-0 -0 -3 -0 -1 -2 2 -2 -1 -0 -2 -2 -4 -4 -7 -2 -0 -3 -2 -3 -3 -1 3 4 -0 -2 3 1 2 -1 1 0 1 -0 -1 3 2 0 3 -1 0 -0 3
-3 -3 -2 0 -1 -2 0 -0 -6 -1 -1 1 -1 -0 1 2 1 0 -0 -5 -5 -5 -4 -6 -1 -1 -2 1 -2 0 -2 -1 -2 3 2 -1 0 -0 -1 -4 -3 1 -3
-1 -1 -1 -1 -4 -3 -4 -3 -1 -2 -2 -8 6 -7 -1 0 1 -0 -1 0 -1 -1 -0 -2 -4 -2 -3 -1 -1 -2 -3 -4 -3 -0 -0 -2 1 -1 -1 -2 1 -2 1
-2 -1 -1 -2 -1 -2 -1 -2 -1 -2 -1 -1 -8 6 -7 -3 -3 -2 -1 -1 -0 -1 -2 -1 -4 -5 -3 -2 -3 -2 -4 -3 -1 1 -3 -2 -1 -3 -3 0 -0 -3 0
-1 0 -1 -2 -0 -2 -0 -1 -3 -2 0 -1 -1 -3 -1 -1 -1 -1 -2 -1 -1 -1 -1 1 1 1 0 1 3 3 3 3 5 -0 -0 -1 -1 2 1 -1 0 2 1
-1 -1 -1 -2 -3 -0 -2 0 0 -1 -4 -3 -2 -2 -3 -2 -1 -1 0 -0 1 2 2 1 1 0 0 2 4 3 4 2 -2 5 4 1 3 5 2 2 -1 -0 -3
-2 -3 -1 0 -0 -0 -2 -3 -2 -2 -1 -1 -1 -0 -0 -0 -1 -1 -1 -2 -2 -2 -1 -2 -1 -2 -2 -3 -5 -4 -2 -3 -0 2 -2 -4 -4 1 1 -0 1 -3 -2
-2 -2 -3 -2 -1 -2 -2 -1 -2 -2 -2 -1 -1 -1 -2 -2 -1 -1 -0 0 0 -1 -0 -1 -1 -2 -1 -1 -3 -2 0 0 -2 -2 0 1 -0 3 0 -0 2 -1 1
Height
5918 5917 5916 5914 5913 5912 5910 5909 5908 5905 5904 5903 5902 5901 5901 5900 5899 5897 5895 5895 5894 5893 5893 5893 5892 5892 5891 5891 5891 5890 5889 5888 5888 5887 5887 5888 5887 5887 5887 5886 5886 5884 5885
5917 5915 5914 5912 5911 5910 5909 5907 5905 5903 5901 5898 5898 5897 5895 5894 5893 5892 5891 5889 5889 5888 5887 5887 5886 5886 5885 5885 5887 5886 5884 5884 5884 5883 5883 5882 5882 5881 5881 5881 5879 5878 5880
5916 5914 5911 5909 5907 5906 5904 5903 5901 5898 5896 5895 5894 5892 5891 5889 5887 5885 5884 5884 5883 5882 5881 5881 5880 5880 5880 5879 5880 5880 5879 5878 5877 5877 5876 5877 5876 5875 5874 5872 5872 5872 5871
5912 5910 5908 5905 5902 5900 5897 5895 5892 5891 5889 5886 5884 5884 5882 5880 5879 5878 5877 5876 5875 5874 5873 5872 5872 5872 5873 5872 5871 5872 5872 5872 5871 5869 5869 5868 5868 5868 5867 5866 5865 5865 5864
5906 5903 5901 5898 5897 5894 5890 5888 5884 5881 5880 5878 5876 5872 5871 5871 5869 5869 5868 5866 5866 5866 5865 5864 5864 5863 5863 5864 5864 5864 5863 5862 5862 5861 5861 5860 5859 5858 5859 5858 5857 5857 5857
5900 5897 5895 5892 5891 5887 5883 5878 5874 5867 5853 5862 5863 5859 5859 5858 5858 5860 5856 5857 5856 5857 5857 5857 5856 5855 5854 5853 5854 5855 5855 5854 5853 5852 5852 5852 5851 5848 5849 5848 5849 5849 5848
5894 5890 5887 5885 5881 5878 5874 5868 5866 5859 5855 5856 5854 5846 5844 5842 5844 5846 5843 5845 5846 5846 5847 5848 5846 5847 5846 5844 5844 5845 5845 5845 5845 5844 5843 5842 5841 5839 5839 5838 5838 5838 5838
5887 5883 5879 5875 5871 5866 5862 5857 5854 5853 5849 5845 5843 5840 5836 5834 5831 5831 5831 5832 5830 5833 5834 5835 5837 5837 5837 5835 5835 5834 5834 5834 5834 5833 5831 5831 5830 5829 5830 5829 5828 5827 5827
5880 5876 5871 5866 5861 5857 5852 5848 5845 5842 5839 5835 5832 5828 5826 5823 5824 5822 5821 5819 5818 5819 5820 5821 5823 5824 5827 5825 5826 5824 5823 5822 5822 5820 5820 5819 5818 5818 5819 5818 5817 5816 5815
5873 5868 5863 5858 5853 5848 5844 5840 5836 5832 5829 5825 5822 5818 5813 5810 5810 5810 5808 5806 5806 5806 5805 5805 5808 5809 5809 5810 5811 5813 5811 5810 5810 5809 5810 5809 5807 5806 5805 5805 5805 5805 5803
5865 5860 5855 5850 5845 5840 5836 5832 5826 5822 5819 5815 5811 5807 5804 5800 5796 5795 5795 5793 5793 5793 5795 5793 5794 5792 5793 5794 5794 5798 5800 5799 5799 5798 5798 5797 5798 5797 5795 5794 5794 5793 5794
5857 5853 5847 5842 5837 5833 5828 5823 5816 5813 5810 5807 5803 5797 5795 5793 5786 5781 5785 5782 5782 5782 5781 5782 5781 5779 5779 5779 5778 5781 5785 5785 5786 5786 5785 5785 5786 5786 5786 5785 5783 5782 5782
5850 5845 5840 5835 5830 5825 5819 5815 5810 5806 5803 5800 5796 5791 5787 5785 5781 5776 5774 5773 5771 5770 5771 5772 5770 5768 5767 5764 5762 5764 5768 5770 5770 5773 5773 5772 5773 5773 5773 5773 5772 5771 5770
5842 5837 5831 5827 5821 5816 5812 5807 5803 5800 5797 5794 5790 5786 5781 5778 5772 5768 5767 5765 5764 5764 5762 5761 5758 5756 5756 5756 5754 5753 5753 5754 5755 5758 5759 5757 5758 5758 5759 5759 5758 5758 5758
5834 5829 5824 5819 5814 5810 5807 5804 5799 5795 5791 5787 5783 5779 5775 5772 5769 5765 5763 5761 5759 5758 5756 5753 5752 5751 5750 5748 5747 5746 5745 5746 5748 5748 5747 5745 5745 5745 5745 5745 5746 5746 5745
5827 5822 5817 5812 5808 5804 5800 5796 5793 5790 5786 5782 5779 5775 5771 5767 5764 5761 5758 5757 5755 5753 5751 5748 5747 5746 5745 5744 5743 5742 5740 5739 5738 5737 5736 5735 5735 5734 5734 5733 5732 5731 5730
5820 5816 5811 5807 5803 5798 5793 5791 5786 5783 5779 5775 5772 5769 5765 5762 5759 5756 5753 5750 5749 5747 5745 5744 5742 5740 5737 5735 5733 5732 5731 5730 5729 5727 5726 5724 5723 5722 5720 5719 5717 5715 5714
5815 5810 5806 5802 5798 5794 5790 5785 5781 5777 5774 5771 5767 5764 5760 5757 5754 5750 5746 5744 5742 5739 5737 5735 5733 5731 5728 5726 5724 5722 5720 5717 5715 5713 5711 5709 5707 5705 5703 5701 5700 5699 5697
5810 5806 5801 5797 5793 5789 5786 5781 5777 5772 5769 5765 5761 5757 5753 5750 5746 5742 5740 5736 5734 5731 5729 5725 5722 5719 5715 5713 5710 5706 5704 5702 5700 5697 5695 5693 5690 5688 5685 5683 5681 5680 5678
5805 5802 5798 5793 5789 5785 5780 5775 5770 5766 5761 5757 5752 5747 5744 5740 5736 5733 5730 5726 5723 5720 5716 5713 5710 5706 5702 5699 5697 5694 5691 5688 5685 5683 5680 5677 5675 5673 5671 5667 5664 5662 5660
5800 5796 5792 5788 5783 5779 5774 5768 5763 5758 5752 5747 5744 5738 5733 5729 5725 5721 5717 5713 5711 5707 5705 5702 5698 5695 5692 5689 5686 5683 5679 5677 5674 5671 5668 5664 5661 5657 5653 5650 5646 5644 5641
5793 5790 5785 5780 5775 5770 5764 5759 5753 5747 5742 5736 5731 5729 5724 5719 5715 5711 5707 5704 5700 5696 5693 5689 5687 5684 5681 5678 5675 5672 5668 5664 5660 5656 5652 5648 5644 5640 5636 5633 5630 5627 5624
5786 5782 5778 5772 5766 5760 5754 5748 5742 5737 5733 5728 5724 5719 5716 5712 5708 5704 5700 5696 5692 5688 5684 5681 5677 5673 5669 5665 5662 5658 5655 5651 5647 5642 5638 5634 5630 5624 5619 5616 5612 5610 5607
5778 5773 5768 5762 5756 5750 5745 5740 5735 5730 5726 5721 5716 5712 5708 5704 5699 5695 5692 5688 5684 5680 5676 5671 5667 5663 5659 5655 5651 5646 5641 5637 5632 5628 5623 5618 5614 5609 5604 5600 5597 5593 5590
5769 5764 5759 5753 5747 5742 5737 5732 5727 5723 5718 5714 5710 5706 5701 5696 5691 5686 5682 5677 5673 5668 5663 5658 5654 5649 5645 5641 5637 5633 5628 5623 5618 5613 5608 5602 5598 5593 5589 5584 5580 5575 5571
5760 5754 5749 5743 5738 5734 5729 5724 5721 5717 5713 5708 5703 5698 5693 5688 5683 5677 5672 5667 5662 5657 5652 5647 5642 5637 5633 5628 5624 5620 5615 5610 5604 5599 5593 5588 5583 5578 5572 5567 5562 5557 5554